SL-16 DEB, 18550

Orbit data source: Space-Track

SL-16 DEB, 18550 is space debris in LEO originally from a launch on Wed, 18 Mar 1987 UTC launched from the Tyuratam Missile And Space Complex (TTMTR). Debris objects in space refer to the collection of defunct objects orbiting the Earth. Examples of debris include non-operational satellites, rocket bodies, and fragments generated from explosions, collisions, or faulty payload assembly.

Loading next visibility...
SL-16 DEB details
Identifier
18550, 1987-027F
Orbit
LEO
Last TLE update13 hours ago
Origin
Flag of CISUNKS (CIS)
ManufacturerYuzhnoe
MissionSpacecraft
Bus & MotorSEP MOTOR COVER, Unknown motor
Mass~0 kg wet, ~1 kg dry
Launch date (UTC)
1987-03-18 (38 years ago)
Launch vehicleUnknown
Launch site
Tyuratam Missile And Space Complex (TTMTR)
Object type
Payload
Rocket body
Debris
Shape & HBRUnknown
Radar Cross SectionSmall (<0.1 m²)

Expand to show TLE details & history

TLE from 13 hours ago
0 SL-16 DEB
1 18550U 87027F   24361.12854977  .00000445  00000-0  42250-3 0  9991
2 18550  71.0231 151.6671 0180227 131.7915 229.8747 13.79067478899792
Epoch: 2024-12-26T03:05Z
Definitive object data (Epoch: 2024-12-26T03:05:06.7Z)
Latitude-0.00008°
Longitude10.27677°
Altitude1,056.258 km
Speed7.281 km/s
True Right ascension10h 06m 40s
True Declination0° 00' 00"
Sunlit
Object was in daylight at TLE epoch
Visualization TLE readout
Latitude64.06306°
Longitude144.53993°
Altitude855.33 km
Speed7.493 km/s
Apparent Right ascension00h 30m 08s
Apparent Declination29° 42' 42"
Sunlit
Object is in daylight
Visualization observer readout
Local Sidereal Time15:09:26
Azimuth34.54° NE
Elevation-11.161°
Doppler factor1
Orbital elements
Apogee altitude1,097.499 km
Perigee altitude832.807 km
Semi-major axis7,343.29 km
Eccentricity0.0180227
Inclination71.0231°
RAAN151.6671°
Arg. of periapsis131.7915°
True anomaly228.31834°
Mean anomaly229.8747°
Eccentric anomaly229.09425°
Mean motion3.44911 °/min
BSTAR0.0004225
Orbital period104.37 mins
Loading maneuver chart data...
Loading historical data...
Loading historical data...
Loading historical data...
Loading historical data...
Loading historical data...
Loading historical data...
Loading historical data...

SL-16 DEB Visibility forecast

Observer location: undefined°, undefined

Span
Click to sort rows by Start time (UTC) header in descending order
Start Az.
Max El. time (UTC)
Max El. Az.
Max El.
End time (UTC)
End Az.
10 mins2024-12-26 21:03:23.000Z345.288° N2024-12-26 21:08:23.000Z64.271° ENE40.657°2024-12-26 21:13:23.000Z142.606° SSE
5 mins2024-12-26 22:52:23.000Z287.555° WNW2024-12-26 22:54:23.000Z263.09° W16.217°2024-12-26 22:57:23.000Z227.614° WSW
9 mins2024-12-27 10:32:23.000Z155.501° SSE2024-12-27 10:36:23.000Z107.775° ESE26.968°2024-12-27 10:41:23.000Z46.788° ENE
10 mins2024-12-27 12:18:23.000Z233.937° WSW2024-12-27 12:23:23.000Z302.684° NW33.576°2024-12-27 12:28:23.000Z7.452° NNE
|